Regional Weather Roundup
Issued by NWS Newport/Morehead, NC

Current Version | Previous Version | Graphics & Text | Print | Product List | Glossary On
Versions: 1 2 3 4 5 6 7 8 9 10 11 12 13 14 15 16 17 18 19 20 21 22 23 24 25 26 27 28 29 30 31 32 33 34 35 36 37 38 39 40 41 42 43 44 45 46 47 48 49 50
000 ASUS42 KMHX 282122 RWRMHX WEATHER ROUNDUP FOR EASTERN NORTH CAROLINA NATIONAL WEATHER SERVICE NEWPORT/MOREHEAD CITY NC 500 PM EDT MON JUL 28 2014 NOTE: "FAIR" INDICATES FEW OR NO CLOUDS BELOW 12,000 FEET WITH NO SIGNIFICANT WEATHER AND/OR OBSTRUCTIONS TO VISIBILITY NCZ015>017-031-032-045>047-102-103-282200- NORTH COAST CITY SKY/WX TMP DP RH WIND PRES REMARKS EDENTON SUNNY 86 66 51 W9 29.75F ELIZABETH CITY SUNNY 86 63 45 W15G23 29.74S KITTY HAWK CLEAR 87 67 51 W12 29.74S MANTEO NOT AVBL $$ NCZ045>047-081-094-103-104-282200- CENTRAL COAST CITY SKY/WX TMP DP RH WIND PRES REMARKS FRISCO PTSUNNY 85 78 80 SW9 29.77S HAZE SWANQUARTER N/A 90 N/A N/A W7 29.74R $$ NCZ095-097-098-100-101-282200- SOUTHERN COAST CITY SKY/WX TMP DP RH WIND PRES REMARKS BEAUFORT MOSUNNY 86 78 77 SW15G24 29.76F CEDAR ISLAND N/A 86 N/A N/A S3 29.79S JACKSONVILLE MOSUNNY 88 73 61 SW8G18 29.74S NEWPORT NOT AVBL PINEY ISLAND MOCLDY 88 76 67 SW7 29.75F WILMINGTON MOSUNNY 88 73 61 S14 29.76R $$ NCZ011>013-027>030-043-044-078>080-089-090>093-098-282200- COASTAL PLAIN CITY SKY/WX TMP DP RH WIND PRES REMARKS AHOSKIE SUNNY 85 62 45 W3 29.76F CLINTON MOSUNNY 91 70 50 CALM 29.76R ELIZABETHTOWN LGT RAIN 78 70 76 SW3 29.76F GOLDSBORO SUNNY 90 67 45 NW13 29.74F GREENVILLE SUNNY 88 66 48 NW6 29.78F HAVELOCK PTSUNNY 77 69 76 NE9G20 29.77R THUNDER KENANSVILLE MOSUNNY 89 64 43 NW5 29.77S KINSTON SUNNY 90 64 43 NW8 29.76F NEW BERN LGT RAIN 77 70 79 E3 29.77S RICHLANDS CLOUDY 82 72 69 NW7 29.77R THUNDER ROANOKE RAPIDS NOT AVBL ROCKY MOUNT MOSUNNY 88 62 41 NW10G20 29.77F WASHINGTON SUNNY 87 66 50 NW9 29.75F WHITEVILLE MOSUNNY 91 74 57 NW10G21 29.75S HX 100 $$ AMZ130-135-150-152-154-156-158-170-250-252-270-ANZ085-086-088-633-658-670-282200- MARINE OBSERVATIONS STATION/POSITION TIME TEMP WIND PRES WAVE SWELL AIR SEA DIR/SP/G HT/PER HT/PER (UTC) (F) (DEG/KT/KT) (MB) (FT/S) (FT/S) CHESAPEAKE LIGHT NOT AVBL BUOY 44014 2100 81 79 250/ 12/ 14 1006.2 4/ 7 3/ 7 DUCK 2100 85 59 260/ 15/ 19 1006.4 2E DUCK 2100 N/A 2/ 9 OREGON INLET 2100 88 83 270/ 10/ 13 1007.2 BUOY 44095 2100 79 N/A 3/ 8 20E OREGON INLET NOT AVBL HATTERAS CG 2100 84 82 220/ 9/ 14 1008.1 DIAMOND BUOY 2100 VRB 16/ 17 1008.0 5/ 6 3/ 9 CAPE LOOKOUT 2100 84 220/ 11/ 14 1007.6 BEAUFORT LAB 2100 84 83 210/ 9/ 15 1007.6 30 SE NEW RIVER 2100 83 82 230/ 10/ 12 1008.5 5/ 7 3/ 7 5 SE WRIGHTSVILL 2100 79 82 260/ 14/ 16 N/A BUOY 41002 2011 82 81 230/ 16/ 19 1013.3 6/ 7 3/ 9 BUOY 41004 2100 84 84 220/ 19/ 23 1008.9 5/ 6 2/ 9 $$

USA.gov is the U.S. government's official web portal to all federal, state and local government web resources and services.